sat.trackr.live / text

‹ back to catalog

QUBE-II

NORAD 69023 · 2026-100AV

PAYLOAD ACTIVE UNKNOWN

§ Identity

Operator
Country
GER
Launch date
2026-05-03
Launch site
AFWTR
Launch vehicle
Mass (kg)
RCS (m²)

External: N2YO · Heavens-Above · Gunter

§ Orbital elements

Epoch: 2026-05-24T16:00:08.235936Z

Period
94.75 min
Inclination
97.4093°
Eccentricity
0.0005074
Mean motion
15.19824548 rev/d
Perigee alt
502.9 km
Apogee alt
509.9 km
Semi-major
6,884.5 km
B*
3.2531e-4
RAAN
42.9086°
Arg perigee
82.5012°
Mean anomaly
277.6800°
Rev number
323

§ Raw data

QUBE-II1 69023U 26100AV  26144.66676199  .00006907  00000+0  32531-3 0  99942 69023  97.4093  42.9086 0005074  82.5012 277.6800 15.19824548  3232

JSON: /api/v1/satellites/69023 · /tle

For live sub-satellite position, see the globe view (requires WebGL).

§ Visibility from observer

Set your observer location to see the next 7 days of passes ≥ 10°. The values pass through the URL so the page stays shareable.

No JS? Fill the form by hand. The geolocation button needs JavaScript.